Location: Kavul?ru
(16.6288°N, 80.5832°E)
Time: 15:46:22
(UTC+00:00)

Cosmos 2228 Rocket - Pass Details

Date: 15 May 2026
Orbit: 612 x 646 km, 82.5° (Epoch: 10 June)

Event Time Altitude Azimuth Distance (km) Brightness Sun altitude
Exits shadow 23:10:28 20° 243° (WSW) 1,459 4.3 -13.3°
Maximum altitude 23:12:10 25° 277° (W) 1,264 4.2 -12.9°
Drops below altitude 10° 23:15:51 10° 333° (NNW) 2,000 5.7 -12.1°
Sets 23:18:23 0° 346° (NNW) 2,901 6.6 -11.6°
